Orbital Elements at Epoch 2459200.5 (2020-Dec-17.0) TDB
Reference: JPL 14 (heliocentric ecliptic J2000)
Element | Value | Uncertainty (1-sigma) | Units |
e | .2153910272763485 | 5.4787e-08 | |
a | 2.363016891073892 | 1.1367e-08 | au |
q | 1.854044255434123 | 1.2694e-07 | au |
i | 4.480244491743274 | 6.4963e-06 | deg |
node | 207.7070538455999 | 5.9138e-05 | deg |
peri | 200.2772129321629 | 6.1081e-05 | deg |
M | 299.8269682477778 | 1.2996e-05 | deg |
tp | 2459422.267580659177 (2021-Jul-26.76758066) | 4.8168e-05 | TDB |
period | 1326.779235024256 3.63 | 9.5734e-06 2.621e-08 | d yr |
n | .2713337611086584 | 1.9578e-09 | deg/d |
Q | 2.871989526713661 | 1.3815e-08 | au |
|
| | Orbit Determination Parameters
Additional Information
|